Location: ??????
(41.3164°N, 22.6615°E)
Time: 10:19:11
(UTC+00:00)

Genesis I - Pass Details

Date: 16 October 2021
Orbit: 469 x 548 km, 64.5° (Epoch: 07 December)

Event Time Altitude Azimuth Distance (km) Brightness Sun altitude
Rises 17:33:41 0° 320° (NW) 2,721 7.6 -20.8°
Reaches altitude 10° 17:35:58 10° 314° (NW) 1,826 6.7 -21.2°
Maximum altitude 17:39:51 42° 243° (WSW) 786 4.4 -22.0°
Enters shadow 17:42:08 21° 183° (S) 1,242 5.0 -22.4°
